Location: Dortmund
(51.5019°N, 7.6520°E)
Time: 19:55:27
(UTC+02:00)

ISS - Pass Details

Date: 29 March 2017
Orbit: 399 x 409 km, 51.6° (Epoch: 29 March)

Event Time Altitude Azimuth Distance (km) Brightness Sun altitude
Rises 21:40:03 0° 232° (SW) 2,307 0.3 -15.9°
Reaches altitude 10° 21:42:11 10° 224° (SW) 1,453 -0.8 -16.2°
Enters shadow 21:45:05 38° 162° (SSE) 627 -3.3 -16.6°
